www.pogodaiklimat.ru
ПОГОДА в Мартинсберге
Время
и дата
06:53 07.02
07:53 07.02
08:53 07.02
09:53 07.02
10:53 07.02
11:53 07.02
12:53 07.02
13:53 07.02
14:53 07.02
15:53 07.02
16:53 07.02
17:53 07.02
18:53 07.02
19:53 07.02
20:53 07.02
21:53 07.02
22:53 07.02
23:53 07.02
00:53 08.02
01:53 08.02
02:53 08.02
03:53 08.02
04:53 08.02
05:53 08.02
06:53 08.02
07:53 08.02
08:53 08.02
09:53 08.02
10:53 08.02
11:53 08.02
12:53 08.02
13:53 08.02
14:53 08.02
15:53 08.02
16:53 08.02
17:53 08.02
18:53 08.02
19:53 08.02
20:53 08.02
21:53 08.02
22:53 08.02
23:53 08.02
00:53 09.02
01:53 09.02
02:53 09.02
03:53 09.02
04:53 09.02
05:53 09.02
Ветер
(напр.,м/с)
Видим. Явления Облачность Т
(С)
Тd
(С)
f
(%)
Тe
(С)
Тes
(С)
Комфортность P
(гПа)
Po
(гПа)
Тmin
(С)
Tmax
(С)
R
(мм)
R24
(мм)
S
(см)
ЮЗ 2 10 км дымка ясно -5.0 -6.1 92 -9 -9 1026.8 1005.4 -6.7 -4.4
штиль 0 8 км дымка ясно -3.9 -5.0 92 -5 -5 1027.3 1006.1
штиль 0 11 км ясно -1.1 -3.3 85 -2 -1 1027.1 1005.8
Ю 3 16 км ясно +1.1 -2.2 79 -3 -1 1026.3 1005.1
Ю 2 16 км ясно +3.9 -1.7 67 +1 +6 1026.2 1005.1
ЮВ 3 16 км ясно +6.1 -1.7 57 +3 +9 1025.1 1004.1
Ю 5 16 км ясно +6.1 -2.2 55 +2 +6 1023.4 1002.4 -5.0 +6.7
ЮВ 3 16 км ясно +7.2 -1.7 53 +5 +11 1022.2 1001.1
ЮВ 2 16 км ясно +7.2 -1.1 56 +6 +11 1021.9 1000.8
В 2 16 км ясно +7.8 -1.1 53 +6 +10 1021.2 1000.1
ЮВ 2 16 км ясно +7.2 -1.1 56 +6 +7 1020.4 999.5
штиль 0 16 км ясно +5.0 -1.1 65 +4 +5 1020.3 999.5
штиль 0 16 км ясно +6.7 -0.6 60 +6 +6 1020.3 999.5 +4.4 +7.8
штиль 0 16 км 2/0 2700 m
[Ac]
+4.4 -0.6 70 +4 +4 1019.8 998.8
штиль 0 16 км 8/0 2700 m
[Ac]
+3.3 -1.1 73 +3 +3 1020.2 999.1
С 2 16 км 8/0 2100 m
[Ac]
+4.4 -0.6 70 +2 +2 1020.3 999.5
штиль 0 16 км 8/0 2100 m
[Ac]
+4.4 -0.6 70 +4 +4 1019.9 999.1
С 2 16 км 2/0 2250 m
[Ac]
+5.0 -0.6 67 +3 +3 1020.4 999.5
штиль 0 16 км 8/8 1950 м +2.8 -1.1 75 +2 +2 1020.3 999.5 +2.8 +6.1
З 3 16 км 5/0 3300 m
[Ac]
+1.7 -1.7 78 -2 -2 1019.8 998.8
штиль 0 16 км 8/0 3300 m
[Ac]
+3.3 -0.6 76 +2 +2 1019.5 998.8
Ю 2 16 км 8/8 1440 м +3.3 -0.6 76 +1 +1 1019.6 998.8
Ю 3 16 км 10/10 1110 м +5.6 +1.1 73 +2 +2 1020.4 999.8
штиль 0 16 км 10/10 1110 м +5.0 +1.1 76 +4 +4 1020.8 1000.1
нст 2 16 км 5/5 1200 м +4.4 +1.7 83 +2 +2 1021.2 1000.5 +1.1 +6.1
штиль 0 14 км 5/5 1230 м +2.8 0.0 82 +2 +2 1022.8 1001.8
штиль 0 16 км 5/5 1200 м +6.1 +1.7 73 +5 +6 1023.5 1002.8
штиль 0 16 км ясно +11.7 +3.3 56 +11 +15 1024.2 1003.4
З 4 16 км ясно +13.3 +1.1 43 +12 +15 1024.5 1003.8
З 4
{8}
16 км ясно +15.0 +0.6 37 +14 +19 1024.3 1003.4
СЗ 5 16 км ясно +15.0 -0.6 34 +14 +18 1023.6 1002.8 +2.2 +15.6
штиль 0 16 км ясно +15.0 0.0 36 +15 +25 1023.5 1002.8
З 4 16 км ясно +15.6 -1.7 30 +15 +19 1023.2 1002.4
З 3 16 км ясно +15.6 -3.3 27 +15 +18 1023.7 1003.1
С 2 16 км ясно +14.4 -3.9 28 +14 +16 1023.7 1003.1
С 2 16 км ясно +12.2 -3.9 32 +12 +12 1024.1 1003.4
СВ 3 16 км ясно +10.6 -2.8 39 +9 +9 1024.6 1003.8 +8.3 +16.1
штиль 0 16 км ясно +7.2 -2.8 49 +7 +7 1025.1 1004.1
СЗ 2 16 км ясно +6.1 -2.8 53 +4 +4 1025.1 1004.1
штиль 0 16 км ясно +5.0 -2.8 57 +5 +5 1025.6 1004.8
штиль 0 16 км ясно +3.3 -2.8 64 +3 +3 1025.1 1004.4
штиль 0 16 км ясно +2.2 -1.7 75 +1 +1 1025.1 1004.1
СВ 2 16 км 10/0 2700 m
[Ac]
+4.4 -1.1 67 +2 +2 1024.6 1003.8 +1.7 +10.6
С 2 16 км 8/0 3000 m
[Ac]
+4.4 -1.1 67 +2 +2 1024.3 1003.4
С 2 16 км слабый дождь 8/0 3300 m
[Ac As]
+6.1 -0.6 62 +4 +4 1023.4 1002.8
С 2 16 км 10/8 1650 m
[Ac]
+5.6 +1.1 73 +3 +3 1022.5 1001.8
штиль 0 16 км 10/10 1500 м +5.6 +1.7 76 +5 +5 1022.3 1001.5
С 2 16 км 10/8 1500 m
[Ac]
+6.7 +2.2 73 +5 +5 1021.6 1000.8
Местоположение метеостанции Eastern West Virginia Regional/Shepherd Airport: широта 39.4019 долгота -77.9844 высота над уровнем моря 170 м.
В архиве по умолчанию представлена погода в Мартинсберге за последние 1-2 суток. Обновление информации о фактической погоде в базе происходит ежечасно! Архивные данные за месяц целиком и за предыдущие месяцы Вы можете получить, выбрав интересующий диапазон дат из раскрывающегося списка и нажав кнопку "Ввод!".
Внимание! Архив погоды МЕТАР в базе сайта по станциям, не включенным в климатический монитор, хранится не более 60 дней. Нет смысла пытаться выбрать более раннюю дату.
*Определитесь, кто Вы:
Внимание! Время в таблицах - местное (без учета летнего времени). Для получения всемирного времени необходимо вычесть поправку, которая равна -5 ч.
Смотрите также архив погоды в соседних городах и на ближайших метеорологических станциях:
Партнеры нашего сайта:      
Пояснения к столбцам:
  • Ветер - указаны скорость ветра в м/с - средняя за 10 мин, порывы в срок и между сроками (в фигурных скобках) и направление, откуда дует ветер: С - северный,
  • СВ - северо-восточный, В - восточный, ЮВ - юго-восточный, Ю - южный, ЮЗ - юго-западный, З - западный, СЗ - северо-западный.
  • Видимость - горизонтальная дальность видимости в метрах или километрах. При видимости от 1 до 10 км при отсутствии осадков обычно наблюдается дымка, при ухудшении видимости до 1 км и менее - туман. В сухую погоду видимость может ухудшаться дымом, пылью или мглою.
  • Явления - указаны атмосферные явления, наблюдавшиеся в срок или в последний час перед сроком; фигурными скобками обозначены явления, наблюдавшиеся между сроками (за 1-3 часа до срока); квадратными скобками обозначены град или гололедные отложения с указанием их диаметра в мм.
  • Облачность - указаны через наклонную черту общая и нижняя облачность в баллах и высота нижней границы облаков в метрах; квадратными скобками обозначены формы облаков: Ci - перистые, Cs - перисто-слоистые, Cc - перисто-кучевые, Ac - высококучевые, As - высокослоистые, Sc - слоисто-кучевые, Ns - слоисто-дождевые, Cu - кучевые, Cb - кучево-дождевые. Подробнее классификацию облаков см. в Атласе облаков (PDF).
  • T - Температура воздуха - температура, измеренная на высоте 2 м над землей.
  • Td - Температура точки росы - температура, при понижении до которой содержащийся в воздухе водяной пар достигнет насыщения.
  • f - Относительная влажность воздуха - влажноcть воздуха, измеренная на высоте 2 м над землей.
  • Te - Эффективная температура - температура, которую ощущает одетый по сезону человек в тени. Характеристика душности погоды. При расчете учитывается влияние влажности воздуха и скорости ветра на теплоощущения человека.
  • Tes - Эффективная температура на солнце - температура, которую ощущает человек, с поправкой на солнечный нагрев. Характеристика знойности погоды. Зависит от высоты солнца над горизонтом, облачности и скорости ветра. Ночью, в пасмурную погоду, а также при ветре 12 м/с и более поправка равна нулю.
  • P - Атмосферное давление - приведенное к уровню моря атмосферное давление.
  • Po - Атмосферное давление - измеренное на уровне метеостанции атмосферное давление.
  • Tmin - Минимальная температура - минимум температуры воздуха на высоте 2 м над землей.
  • Tmax - Максимальная температура - максимум температуры воздуха на высоте 2 м над землей.
  • R - Количество осадков - Количество выпавших осадков за период времени, мм. При наведении курсора мыши на число - период времени, за который выпало указанное количество осадков.
  • R24 - Количество осадков - Количество выпавших осадков за 24 часа, мм.
  • S - Снежный покров - Высота снежного покрова, см. При наведении курсора мыши на число - состояние снежного покрова и степень покрытия местности в баллах.